EW8829 Weather Reports


time (UTC)temp
F
wind
direction
speed
knots
gust
knots
rain 1hr
in
rain 24hr
in
rain mn
in
humidity
%
barometer
mb
20260904172514 74 35 1.7 1.7 0.00 0.17 0.17 72 1013.5
20260904172012 74 13 1.7 2.6 0.00 0.17 0.17 73 1013.4
20260904171508 76 9 2.6 3.5 0.00 0.17 0.17 72 1013.3
20260904171004 76 18 2.6 3.5 0.00 0.17 0.17 72 1013.4
20260904170459 75 142 0.0 2.6 0.00 0.17 0.17 73 1013.4
20260904165954 74 264 1.7 1.7 0.00 0.17 0.17 79 1013.5
20260904165453 74 12 1.7 1.7 0.00 0.17 0.17 76 1013.6
20260904164953 74 359 1.7 2.6 0.00 0.17 0.17 74 1013.5
20260904164448 75 359 2.6 3.5 0.00 0.17 0.17 71 1013.5
20260904163944 74 29 1.7 1.7 0.00 0.17 0.17 77 1013.2
20260904163438 74 87 2.6 3.5 0.00 0.17 0.17 77 1013.2
20260904162937 75 339 0.0 1.7 0.00 0.17 0.17 77 1013.1
20260904162433 75 254 2.6 4.3 0.00 0.17 0.17 73 1013.3
20260904161928 76 71 0.0 2.6 0.00 0.17 0.17 72 1013.5
20260904161423 74 315 0.9 3.5 0.00 0.17 0.17 75 1013.6
20260904160919 75 45 2.6 3.5 0.00 0.17 0.17 75 1013.6
20260904160414 75 0 2.6 2.6 0.00 0.17 0.17 76 1013.6
20260904155904 76 256 1.7 5.2 0.00 0.17 0.17 71 1013.6
20260904155403 76 329 0.9 2.6 0.00 0.17 0.17 72 1013.5
20260904154902 74 344 1.7 6.1 0.00 0.17 0.17 78 1013.5
20260904154357 73 271 4.3 7.0 0.00 0.17 0.17 77 1013.4
20260904153852 73 311 3.5 4.3 0.00 0.17 0.17 78 1013.8
20260904153348 74 345 0.9 3.5 0.00 0.17 0.17 76 1013.3
20260904152844 74 21 1.7 3.5 0.00 0.17 0.17 75 1013.5
20260904152338 75 6 1.7 3.5 0.00 0.17 0.17 77 1013.5
20260904151833 75 359 1.7 3.5 0.00 0.17 0.17 75 1013.7
20260904151332 74 126 1.7 5.2 0.00 0.17 0.17 77 1013.7
20260904150829 74 345 1.7 2.6 0.00 0.17 0.17 77 1013.7
20260904150323 74 102 1.7 2.6 0.00 0.17 0.17 78 1013.9
20260904145821 73 5 0.9 3.5 0.00 0.17 0.17 76 1013.6
20260904145318 74 349 1.7 2.6 0.00 0.17 0.17 78 1013.5
20260904144813 74 8 1.7 1.7 0.00 0.17 0.17 79 1013.9
20260904144308 75 15 0.9 1.7 0.00 0.17 0.17 78 1013.6
20260904143803 74 4 1.7 2.6 0.00 0.17 0.17 80 1013.4
20260904143300 73 357 2.6 3.5 0.00 0.17 0.17 79 1013.7
20260904142756 73 19 0.0 3.5 0.00 0.17 0.17 79 1013.6
20260904142252 73 0 1.7 2.6 0.00 0.17 0.17 82 1013.7
20260904141752 73 10 2.6 3.5 0.00 0.17 0.17 81 1013.4
20260904141247 72 59 0.0 3.5 0.00 0.17 0.17 83 1013.6
20260904140742 72 68 3.5 3.5 0.00 0.17 0.17 84 1013.5
20260904140238 72 328 3.5 3.5 0.00 0.17 0.17 85 1013.8
20260904135736 71 356 2.6 4.3 0.00 0.17 0.17 85 1013.7
20260904135232 71 334 1.7 5.2 0.00 0.17 0.17 85 1013.7
20260904134728 71 358 1.7 2.6 0.00 0.17 0.17 87 1013.8
20260904134227 70 306 4.3 4.3 0.00 0.17 0.17 85 1013.8
20260904133722 71 33 0.9 3.5 0.00 0.17 0.17 85 1013.5
20260904133219 70 325 0.0 3.5 0.00 0.17 0.17 87 1013.5
20260904132718 71 13 1.7 2.6 0.00 0.17 0.17 88 1013.2
20260904132214 71 5 3.5 3.5 0.00 0.17 0.17 87 1013.8
20260904131713 72 11 0.9 2.6 0.00 0.17 0.17 87 1013.4
20260904131209 70 2 1.7 1.7 0.00 0.17 0.17 91 1013.6
20260904130709 69 13 1.7 3.5 0.00 0.17 0.17 89 1013.3
20260904130208 70 29 0.9 1.7 0.00 0.17 0.17 89 1013.5
20260904125704 69 356 1.7 2.6 0.00 0.17 0.17 90 1013.5
20260904125159 69 9 0.0 2.6 0.00 0.17 0.17 92 1013.7
20260904124654 68 302 1.7 3.5 0.00 0.17 0.17 93 1013.6
20260904124150 69 346 1.7 2.6 0.00 0.17 0.17 93 1013.5
20260904123644 68 318 0.0 2.6 0.00 0.17 0.17 94 1013.9
20260904123140 68 350 0.0 1.7 0.00 0.17 0.17 96 1013.6
20260904122640 67 347 0.9 2.6 0.00 0.17 0.17 98 1013.4
20260904122135 67 13 0.0 1.7 0.00 0.17 0.17 99 1013.4
20260904121630 66 35 1.7 1.7 0.00 0.17 0.17 99 1013.4
20260904121126 66 66 1.7 1.7 0.00 0.17 0.17 99 1013.5
20260904120623 67 124 0.0 0.9 0.00 0.17 0.17 99 1013.6
20260904120119 65 31 1.7 1.7 0.00 0.17 0.17 99 1013.4
20260904115618 65 351 0.9 1.7 0.00 0.17 0.17 99 1013.6
20260904115113 65 50 0.0 1.7 0.00 0.17 0.17 99 1013.4
20260904114608 66 22 0.0 0.9 0.00 0.17 0.17 99 1013.2
20260904114103 66 89 0.0 0.0 0.00 0.17 0.17 99 1013.6
20260904113603 65 39 0.9 1.7 0.00 0.17 0.17 99 1013.2
20260904113102 65 80 1.7 1.7 0.00 0.17 0.17 99 1013.4
20260904112557 65 39 0.9 1.7 0.00 0.17 0.17 99 1013.4
20260904112053 65 48 1.7 2.6 0.00 0.17 0.17 99 1013.3
20260904111549 65 43 0.0 1.7 0.00 0.17 0.17 99 1013.3
20260904111044 65 358 0.9 1.7 0.00 0.17 0.17 99 1013.3
20260904110543 65 20 1.7 1.7 0.00 0.17 0.17 99 1013.2
20260904110034 65 14 0.9 1.7 0.00 0.17 0.17 99 1013.1
20260904105527 65 28 1.7 1.7 0.00 0.17 0.17 99 1012.9
20260904105023 65 11 1.7 1.7 0.00 0.17 0.17 99 1013.0
20260904104518 65 15 1.7 2.6 0.00 0.17 0.17 99 1013.2
20260904104014 65 45 1.7 1.7 0.00 0.17 0.17 99 1013.2
20260904103509 66 11 1.7 1.7 0.00 0.17 0.17 99 1013.2
20260904103005 66 214 0.0 0.9 0.00 0.17 0.17 99 1012.9
20260904102501 66 33 0.0 1.7 0.00 0.17 0.17 99 1012.8
20260904101955 66 48 0.9 1.7 0.00 0.17 0.17 99 1012.8
20260904101453 66 322 0.0 0.0 0.00 0.17 0.17 99 1012.9
20260904100948 66 50 0.0 0.9 0.00 0.17 0.17 99 1012.7
20260904100444 66 11 0.9 1.7 0.00 0.17 0.17 99 1012.9
20260904095943 66 43 1.7 1.7 0.00 0.17 0.17 99 1012.8
20260904095439 66 55 0.0 0.9 0.00 0.17 0.17 99 1012.7
20260904094938 66 66 0.9 1.7 0.00 0.17 0.17 99 1012.8
20260904094434 66 19 0.9 0.9 0.00 0.17 0.17 99 1012.7
20260904093924 66 23 0.9 1.7 0.00 0.17 0.17 99 1012.8
20260904093419 66 55 0.9 1.7 0.00 0.17 0.17 99 1012.7
20260904092909 66 48 0.0 0.9 0.00 0.17 0.17 99 1012.6
20260904092406 66 54 0.0 0.9 0.00 0.17 0.17 99 1012.5
20260904091902 66 126 0.0 1.7 0.00 0.17 0.17 99 1012.6
20260904091357 66 106 0.0 0.9 0.00 0.17 0.17 99 1012.8
20260904090852 66 133 1.7 1.7 0.00 0.17 0.17 99 1012.6
20260904090347 66 49 0.0 0.9 0.00 0.17 0.17 99 1012.6
20260904085843 66 12 0.0 0.9 0.00 0.17 0.17 99 1012.6
20260904085337 66 57 0.9 1.7 0.00 0.17 0.17 99 1012.6
20260904084832 66 16 0.9 1.7 0.00 0.17 0.17 99 1012.5
20260904084328 66 85 1.7 1.7 0.00 0.17 0.17 99 1012.5
20260904083824 66 114 1.7 1.7 0.00 0.17 0.17 99 1012.3
20260904083320 67 214 0.0 1.7 0.00 0.17 0.17 99 1012.4
20260904082815 67 239 0.9 0.9 0.00 0.17 0.17 99 1012.3
20260904082310 67 142 0.0 0.0 0.00 0.17 0.17 99 1012.2
20260904081805 67 89 0.0 0.9 0.00 0.17 0.17 99 1012.2
20260904081301 67 11 0.9 0.9 0.00 0.17 0.17 99 1012.0
20260904080756 67 336 0.0 0.9 0.00 0.17 0.17 99 1011.7
20260904080251 67 29 0.0 0.0 0.00 0.17 0.17 99 1011.8
20260904075748 67 19 0.0 0.9 0.00 0.17 0.17 99 1011.9
20260904075242 67 135 0.0 0.0 0.00 0.17 0.17 99 1011.8
20260904074742 67 50 0.0 0.0 0.00 0.17 0.17 99 1011.7
20260904074236 67 45 0.0 0.0 0.00 0.17 0.17 99 1011.7
20260904073731 67 37 0.0 0.0 0.00 0.17 0.17 99 1011.6
20260904073222 67 10 0.9 1.7 0.00 0.17 0.17 99 1011.6
20260904072718 67 78 1.7 1.7 0.00 0.17 0.17 99 1011.4
20260904072212 67 64 0.0 0.9 0.00 0.17 0.17 99 1011.5
20260904071708 67 129 0.0 0.0 0.00 0.17 0.17 99 1011.7
20260904071203 67 22 0.0 0.0 0.00 0.17 0.17 99 1011.6
20260904070702 67 37 0.0 0.9 0.00 0.17 0.17 99 1011.5
20260904070201 68 72 0.9 0.9 0.00 0.17 0.17 99 1011.3
20260904065656 68 309 0.0 0.0 0.00 0.17 0.17 99 1011.5
20260904065154 68 304 0.0 0.0 0.00 0.17 0.17 99 1011.7
20260904064653 68 296 0.0 0.9 0.00 0.17 0.17 99 1011.6
20260904064149 68 309 0.0 0.0 0.00 0.17 0.17 99 1011.5
20260904063644 67 50 0.0 0.0 0.00 0.17 0.17 99 1011.4
20260904063140 68 37 0.0 0.0 0.00 0.17 0.17 99 1011.7
20260904062636 68 35 0.0 1.7 0.00 0.17 0.17 99 1011.6
20260904062132 68 15 0.9 0.9 0.00 0.17 0.17 99 1011.7
20260904061627 68 321 0.0 0.9 0.00 0.17 0.17 99 1011.6
20260904061123 68 50 0.0 0.0 0.00 0.17 0.17 99 1011.5
20260904060620 68 89 0.0 0.9 0.00 0.17 0.17 99 1011.6
20260904060115 68 66 0.0 0.9 0.00 0.17 0.17 99 1011.9
20260904055610 68 62 0.9 0.9 0.00 0.17 0.17 99 1011.7
20260904055105 68 41 0.9 1.7 0.00 0.17 0.17 99 1011.9
20260904054601 69 16 0.9 1.7 0.00 0.17 0.17 99 1011.9
20260904054056 69 0 0.0 0.9 0.00 0.17 0.17 99 1011.7
20260904053556 69 76 0.0 0.9 0.00 0.17 0.17 99 1012.0
20260904053051 69 52 0.0 1.7 0.00 0.17 0.17 99 1011.8
20260904052548 69 32 0.0 0.9 0.00 0.17 0.17 99 1011.8
20260904052044 69 304 0.0 1.7 0.00 0.17 0.17 99 1011.9
20260904051540 70 37 0.0 0.9 0.00 0.17 0.17 99 1011.8
20260904051039 70 50 0.0 1.7 0.00 0.17 0.17 99 1012.2
20260904050535 70 21 0.9 1.7 0.00 0.17 0.17 99 1012.2
20260904050031 70 322 0.0 0.0 0.02 0.17 0.17 99 1012.1
20260904045526 70 358 0.9 1.7 0.00 0.16 0.16 99 1012.2
20260904045021 70 126 0.9 2.6 0.00 0.16 0.16 99 1012.2
20260904044517 70 343 0.0 0.0 0.00 0.16 0.16 99 1012.4
20260904044013 70 29 0.0 1.7 0.00 0.16 0.16 99 1012.4
20260904043509 70 33 0.9 1.7 0.02 0.16 0.16 99 1012.3
20260904043004 70 18 1.7 1.7 0.17 0.16 0.16 99 1012.4
20260904042500 70 249 0.0 1.7 0.47 0.16 0.16 99 1012.2
20260904041949 70 76 1.7 1.7 0.45 0.12 0.12 99 1012.4
20260904041446 70 75 1.7 1.7 0.21 0.07 0.07 99 1012.3
20260904040941 71 29 0.9 1.7 0.28 0.05 0.05 99 1012.6
20260904040441 71 135 0.0 1.7 0.66 0.03 0.03 99 1012.5
20260904035937 70 87 0.9 3.5 0.57 0.41 0.41 99 1012.1
20260904035433 70 15 0.0 0.9 0.21 0.33 0.33 99 1012.7
20260904034932 71 118 1.7 1.7 0.26 0.32 0.32 99 1012.1
20260904034427 70 278 0.9 0.9 0.21 0.29 0.29 99 1012.4
20260904033923 70 336 0.0 1.7 0.19 0.27 0.27 99 1012.4
20260904033419 70 62 0.0 1.7 0.12 0.26 0.26 99 1012.2
20260904032915 70 50 0.0 0.0 0.07 0.24 0.24 99 1012.4
20260904032410 70 66 0.0 0.0 0.07 0.24 0.24 99 1012.2
20260904031904 70 62 0.0 0.9 0.02 0.22 0.22 99 1012.1
20260904031400 70 318 1.7 1.7 0.07 0.22 0.22 99 1012.1
20260904030856 70 352 0.0 0.0 0.12 0.22 0.22 99 1012.0
20260904030351 70 19 0.0 0.0 0.09 0.21 0.21 99 1012.2
20260904025847 70 359 1.7 1.7 0.09 0.20 0.20 99 1012.2
20260904025342 70 62 0.0 0.9 0.05 0.19 0.19 99 1012.2
20260904024842 70 15 0.9 1.7 0.00 0.18 0.18 99 1012.2
20260904024337 70 0 0.9 1.7 0.00 0.18 0.18 99 1012.0
20260904023834 70 30 0.9 1.7 0.00 0.18 0.18 99 1011.9
20260904023330 70 44 0.9 1.7 0.00 0.18 0.18 99 1011.9
20260904022828 70 15 1.7 1.7 0.00 0.18 0.18 99 1012.0
20260904022326 70 89 0.0 0.0 0.00 0.18 0.18 99 1012.2
20260904021822 70 15 0.0 0.0 0.00 0.18 0.18 99 1012.1
20260904021322 71 346 0.0 0.9 0.00 0.18 0.18 99 1012.3
20260904020817 71 309 0.0 0.9 0.00 0.18 0.18 99 1012.5
20260904020312 70 311 1.7 1.7 0.00 0.18 0.18 99 1012.7
20260904015810 71 7 0.9 0.9 0.00 0.18 0.18 99 1012.6
20260904015307 70 89 0.0 0.0 0.00 0.18 0.18 99 1012.6
20260904014805 71 89 0.0 0.0 0.00 0.18 0.18 99 1012.5
20260904014300 71 321 0.0 0.0 0.00 0.18 0.18 99 1012.7
20260904013756 70 282 0.0 0.9 0.00 0.18 0.18 99 1012.5
20260904013252 70 26 0.9 1.7 0.00 0.18 0.18 99 1012.7
20260904012747 70 89 1.7 1.7 0.00 0.18 0.18 99 1012.6
20260904012247 71 43 0.0 0.9 0.00 0.18 0.18 99 1012.6
20260904011746 71 28 0.9 0.9 0.00 0.18 0.18 99 1012.6
20260904011241 71 80 0.9 0.9 0.00 0.18 0.18 99 1012.7
20260904010736 71 49 0.0 0.0 0.00 0.18 0.18 99 1012.9
20260904010233 71 129 0.0 0.0 0.00 0.18 0.18 99 1012.7
20260904005727 71 44 0.0 0.0 0.00 0.18 0.18 99 1012.8
20260904005223 71 44 0.0 1.7 0.00 0.18 0.18 99 1012.6
20260904004718 71 34 0.9 1.7 0.00 0.18 0.18 99 1012.7
20260904004214 71 34 0.9 0.9 0.00 0.18 0.18 99 1012.5
20260904003708 71 72 0.9 1.7 0.00 0.18 0.18 99 1012.6
20260904003205 71 50 0.0 0.0 0.00 0.18 0.18 99 1012.5
20260904002700 72 50 0.0 0.0 0.00 0.18 0.18 99 1012.5
20260904002155 72 297 0.0 0.0 0.00 0.18 0.18 99 1012.2
20260904001645 72 22 0.0 0.9 0.00 0.18 0.18 99 1012.4
20260904001144 72 50 0.0 0.9 0.00 0.18 0.18 99 1012.3
20260904000639 72 59 0.9 0.9 0.00 0.18 0.18 99 1012.5
20260904000135 72 315 0.0 0.0 0.00 0.18 0.18 99 1012.3
20260903235634 72 315 0.0 1.7 0.00 0.18 0.18 99 1012.4
20260903235130 73 322 0.9 1.7 0.00 0.18 0.18 99 1012.2
20260903234625 73 37 0.0 0.0 0.00 0.18 0.18 99 1012.2
20260903234121 73 37 0.0 0.0 0.00 0.18 0.18 99 1012.3
20260903233617 73 6 0.0 0.0 0.00 0.18 0.18 99 1012.5
20260903233113 73 50 0.0 0.0 0.00 0.18 0.18 98 1012.5
20260903232607 74 50 0.0 0.0 0.00 0.18 0.18 98 1012.6
20260903232103 74 309 0.0 0.9 0.00 0.18 0.18 98 1012.6
20260903231556 74 299 0.0 0.9 0.00 0.18 0.18 98 1012.5
20260903231051 75 343 0.0 0.9 0.00 0.18 0.18 98 1012.6
20260903230548 75 321 0.0 0.0 0.00 0.18 0.18 98 1012.5
20260903230045 75 322 0.0 1.7 0.00 0.18 0.18 98 1012.5
20260903225537 75 322 0.9 0.9 0.00 0.18 0.18 98 1012.3
20260903225033 75 315 0.9 1.7 0.00 0.18 0.18 97 1012.3
20260903224530 75 315 0.0 0.0 0.00 0.18 0.18 97 1012.2
20260903224025 75 300 0.0 0.9 0.00 0.18 0.18 97 1012.1
20260903223524 76 309 0.0 0.0 0.00 0.18 0.18 96 1012.1
20260903223024 76 303 0.9 1.7 0.00 0.18 0.18 95 1012.0
20260903222520 76 308 0.9 1.7 0.00 0.18 0.18 95 1012.0
20260903222018 76 295 1.7 1.7 0.00 0.18 0.18 94 1012.3
20260903221514 76 295 0.9 1.7 0.00 0.18 0.18 94 1011.9
20260903221011 77 302 1.7 1.7 0.00 0.18 0.18 93 1011.8
20260903220510 77 287 1.7 2.6 0.00 0.18 0.18 93 1011.7
20260903220010 77 315 0.9 1.7 0.00 0.18 0.18 93 1011.6
20260903215505 78 295 1.7 1.7 0.00 0.18 0.18 92 1011.7
20260903215003 78 304 1.7 2.6 0.00 0.18 0.18 91 1011.7
20260903214459 80 293 0.9 0.9 0.00 0.18 0.18 86 1011.8
20260903213958 81 320 0.9 0.9 0.00 0.18 0.18 85 1011.8
20260903213454 80 25 0.0 0.9 0.00 0.18 0.18 80 1011.7
20260903212950 81 296 0.0 0.9 0.00 0.18 0.18 80 1011.9
20260903212445 81 340 0.9 1.7 0.00 0.18 0.18 78 1011.9
20260903211940 80 343 0.9 3.5 0.00 0.18 0.18 82 1012.0
20260903211435 82 349 0.9 2.6 0.00 0.18 0.18 78 1011.7
20260903210932 83 255 1.7 1.7 0.00 0.18 0.18 77 1011.9
20260903210431 83 314 1.7 1.7 0.00 0.18 0.18 79 1012.1
20260903205927 83 296 0.9 1.7 0.00 0.18 0.18 79 1012.0
20260903205426 83 350 0.0 1.7 0.00 0.18 0.18 77 1012.2
20260903204920 83 170 1.7 1.7 0.00 0.18 0.18 74 1012.2
20260903204417 83 0 0.9 2.6 0.00 0.18 0.18 74 1012.2
20260903203913 84 236 0.0 3.5 0.00 0.18 0.18 72 1012.2
20260903203408 84 330 1.7 2.6 0.00 0.18 0.18 76 1012.2
20260903202907 82 343 0.0 1.7 0.00 0.18 0.18 77 1012.3
20260903202404 82 282 2.6 3.5 0.00 0.18 0.18 77 1012.4
20260903201903 82 313 1.7 5.2 0.00 0.18 0.18 76 1012.2
20260903201359 83 284 7.8 9.6 0.00 0.18 0.18 75 1012.5
20260903200858 83 214 5.2 5.2 0.00 0.18 0.18 73 1012.5
20260903200353 83 224 4.3 5.2 0.00 0.18 0.18 72 1012.4
20260903195848 84 235 1.7 3.5 0.00 0.18 0.18 74 1012.5
20260903195344 83 272 1.7 4.3 0.00 0.18 0.18 72 1012.5
20260903194838 82 325 1.7 3.5 0.00 0.18 0.18 77 1012.4
20260903194334 83 32 0.0 1.7 0.00 0.18 0.18 75 1012.2
20260903193830 82 211 2.6 4.3 0.00 0.18 0.18 74 1012.5
20260903193326 83 336 1.7 4.3 0.00 0.18 0.18 75 1012.0
20260903192821 82 143 1.7 1.7 0.00 0.18 0.18 76 1012.5
20260903192316 82 254 3.5 7.0 0.00 0.18 0.18 74 1012.5
20260903191813 82 56 0.0 1.7 0.00 0.18 0.18 78 1012.6
20260903191308 81 247 3.5 6.1 0.00 0.18 0.18 78 1012.7
20260903190807 82 252 2.6 3.5 0.00 0.18 0.18 75 1012.6
20260903190303 83 248 1.7 3.5 0.00 0.18 0.18 75 1012.6
20260903185757 81 271 2.6 7.0 0.00 0.18 0.18 77 1012.9
20260903185256 80 236 1.7 1.7 0.00 0.18 0.18 78 1012.8
20260903184753 80 333 0.0 2.6 0.00 0.18 0.18 81 1013.2
20260903184249 79 19 0.9 0.9 0.00 0.18 0.18 82 1012.9
20260903183744 79 339 0.0 1.7 0.00 0.18 0.18 84 1012.9
20260903183238 79 323 1.7 3.5 0.00 0.18 0.18 80 1012.8
20260903182737 80 8 1.7 1.7 0.00 0.18 0.18 81 1012.9
20260903182232 80 272 2.6 4.3 0.00 0.18 0.18 78 1013.3
20260903181731 80 257 1.7 2.6 0.00 0.18 0.18 80 1013.3
20260903181226 80 154 0.0 3.5 0.00 0.18 0.18 79 1013.2
20260903180722 80 215 3.5 5.2 0.00 0.18 0.18 79 1013.0
20260903180221 81 21 0.0 2.6 0.00 0.18 0.18 79 1013.1
20260903175721 81 216 0.9 2.6 0.00 0.18 0.18 79 1013.3
20260903175214 80 341 0.9 4.3 0.00 0.18 0.18 79 1013.4
20260903174714 80 264 2.6 5.2 0.00 0.18 0.18 80 1013.3
20260903174209 81 298 0.0 1.7 0.00 0.18 0.18 78 1013.0
20260903173709 80 277 2.6 3.5 0.00 0.18 0.18 78 1013.3
20260903173206 79 99 0.0 1.7 0.00 0.18 0.18 80 1013.3
20260903172701 79 351 1.7 5.2 0.00 0.18 0.18 80 1013.5